Content
SEND FEEDBACK

Daily
Averages
Monthly
Summary
United States of America

ST. LOUIS, MISSOURI


Home > North America > United States > Missouri
Elevation: 535 feet     Latitude: 38 45N     Longitude: 090 22W

WEATHER
 
SELECT A DAY
Number of Records: 200,462;   Date Range: 1/1/95 - 11/21/14
 
SHARE

PRINT THIS DATA

[ ← Previous Day ]
WEATHER ALMANAC - DECEMBER 8, 2013
[ Next Day → ]
[ °C ]   °F
Weather ElementAverageHighLow
Temperature23.4 °F28 °F (11:54 pm)19.4 °F (2:20 am)
Dewpoint19 °F24.1 °F (11:54 pm)12.2 °F (1:20 am)
Humidity83.5 %93 % (3:38 pm)68 % (1:20 am)
Barometer30.21 in30.44 in (1:54 am)30.04 in (3:38 pm)
Wind Speed6.1 mph12.7 mph (4:54 am)
Weather ElementAverage
Visibility5.4 mi
Wind DirectionESE (99.4 °)

Weather ElementTotal
Precipitation0.01 in
Heating Degree Days41.3 (Base 65)
Averaged from 35 records on December 8, 2013
WEATHER CONDITIONS BREAKOUT
WIND DIRECTION BREAKOUT
WEATHER BY HOUR - DECEMBER 8, 2013
[ °C ]   °F
Local TimeTemperatureDewpointHumidityBarometerVisibilityWind DirectionWind SpeedGust SpeedPrecipitationEventsConditions
1:20 AM21.2 °F12.2 °F68 %30.42 in2.5 miEast (100°)8.1 mph0.00 inSnowLight Snow
1:54 AM19.9 °F15.1 °F81 %30.44 in2.0 miEast (80°)8.1 mph0.00 inSnowLight Snow
2:20 AM19.4 °F15.8 °F86 %30.39 in1.8 miENE (60°)5.8 mph0.00 inSnowLight Snow
2:25 AM19.4 °F15.8 °F86 %30.39 in2.0 miNE (50°)8.1 mph0.00 inSnowLight Snow
2:39 AM19.4 °F15.8 °F86 %30.38 in5.0 miENE (60°)5.8 mph0.00 inSnowLight Snow
2:54 AM19.9 °F16.0 °F85 %30.41 in10.0 miNE (50°)8.1 mph0.00 inOvercast
3:54 AM19.9 °F16.0 °F85 %30.38 in10.0 miENE (60°)9.2 mphOvercast
4:54 AM21.0 °F16.0 °F81 %30.31 in10.0 miENE (70°)12.7 mphOvercast
5:19 AM21.2 °F15.8 °F80 %30.27 in10.0 miENE (60°)10.4 mphOvercast
5:54 AM21.0 °F16.0 °F81 %30.30 in10.0 miENE (60°)10.4 mphOvercast
6:54 AM21.0 °F16.0 °F81 %30.30 in9.0 miEast (80°)10.4 mphOvercast
7:15 AM21.2 °F15.8 °F80 %30.24 in10.0 miENE (70°)11.5 mphOvercast
7:54 AM21.9 °F17.1 °F82 %30.28 in10.0 miEast (90°)4.6 mphOvercast
8:05 AM21.2 °F17.6 °F86 %30.25 in10.0 miEast (80°)5.8 mphOvercast
8:54 AM21.9 °F17.1 °F82 %30.26 in4.0 miEast (80°)6.9 mph0.00 inSnowLight Snow
9:54 AM24.1 °F17.1 °F75 %30.25 in4.0 miEast (100°)6.9 mph0.00 inHaze
10:33 AM24.8 °F17.6 °F74 %30.19 in3.0 miVariable4.6 mph0.00 inSnowLight Snow
10:54 AM25.0 °F19.0 °F78 %30.21 in3.0 miEast (90°)3.5 mph0.00 inSnowLight Snow
11:25 AM24.8 °F17.6 °F74 %30.16 in6.0 miEast (90°)4.6 mph0.00 inHaze
11:54 AM25.0 °F19.9 °F81 %30.16 in4.0 miEast (90°)5.8 mph0.00 inHaze
12:49 PM24.8 °F21.2 °F86 %30.09 in2.0 miESE (110°)4.6 mphOvercast
12:54 PM25.0 °F21.0 °F85 %30.12 in1.8 miSE (140°)4.6 mphOvercast
1:10 PM24.8 °F21.2 °F86 %30.08 in2.0 miVariable3.5 mphOvercast
1:54 PM25.0 °F21.0 °F85 %30.07 in2.0 miEast (100°)5.8 mphOvercast
2:54 PM25.0 °F21.0 °F85 %30.06 in3.0 miSSE (160°)3.5 mph0.01 inOvercast
3:38 PM24.8 °F23.0 °F93 %30.04 in2.5 miCalmOvercast
3:54 PM25.0 °F23.0 °F92 %30.06 in2.0 miSSE (160°)3.5 mphOvercast
4:54 PM25.0 °F23.0 °F92 %30.07 in2.0 miSSW (210°)3.5 mphOvercast
5:54 PM25.0 °F21.9 °F88 %30.07 in2.0 miSouth (190°)3.5 mphOvercast
6:54 PM26.1 °F23.0 °F88 %30.08 in4.0 miCalm0.00 inSnowLight Snow
7:54 PM26.1 °F23.0 °F88 %30.10 in5.0 miSW (220°)4.6 mph0.00 inSnowLight Snow
8:54 PM26.1 °F23.0 °F88 %30.10 in6.0 miCalm0.00 inOvercast
9:54 PM27.0 °F23.0 °F85 %30.11 in8.0 miWest (260°)8.1 mphOvercast
10:54 PM27.0 °F23.0 °F85 %30.12 in10.0 miWest (260°)8.1 mphOvercast
11:54 PM28.0 °F24.1 °F85 %30.13 in10.0 miWSW (250°)8.1 mphOvercast
Hourly data recorded from KSUS, located miles away from St. Louis, Missouri







STORIES FROM OUR PARTNERS